Pottstown, PA

7:26 AM EDT on June 28, 2017 (GMT -0400)
Pottstown Limerick

Weather History for KPTW - May, 2013

Change the Weather History Date:

Monday, May 13, 2013

  Actual Average (KRDG) Record (KRDG)
Temperature  
Mean Temperature 45 °F -  
Max Temperature 54 °F 69 °F 90 °F (1944)
Min Temperature 37 °F 47 °F 36 °F (1976)
Degree Days  
Heating Degree Days 20    
Moisture  
Dew Point 30 °F    
Average Humidity 56    
Maximum Humidity 86    
Minimum Humidity 31    
Precipitation  
Precipitation 0.00 in - - ()
Sea Level Pressure  
Sea Level Pressure 30.07 in    
Wind  
Wind Speed 3 mph (NW)    
Max Wind Speed 13 mph    
Max Gust Speed 20 mph    
Visibility 10 miles    
Events      
Averages and records for this station are not official NWS values.
T = Trace of Precipitation, MM = Missing Value Source: NWS Daily Summary

Daily Weather History Graph

Daily Weather History Graph

Search for Another Location

Airport or City:

Trip Planner

Search our weather history database for the weather conditions in past years. The results will help you decide how hot, cold, wet, or windy it might be!

Date:

Astronomy

May. 13, 2013 Rise Set
Actual Time 5:48 AM EDT 8:09 PM EDT
Civil Twilight 5:17 AM EDT 8:40 PM EDT
Nautical Twilight 4:39 AM EDT 9:18 PM EDT
Astronomical Twilight 3:57 AM EDT 10:00 PM EDT
Moon 8:31 AM EDT (5/13) 11:17 PM EDT (5/13)
Length of Visible Light 15h 22m
Length of Day
14h 21m
Waxing Crescent, 12% of the Moon is Illuminated
May 13
Waxing Crescent
May 18
First Quarter
May 25
Full
May 31
Last Quarter
Jun 8
New

Hourly Weather History & Observations

Time (EDT) Temp. Windchill Dew Point Humidity Pressure Visibility Wind Dir Wind Speed Gust Speed Precip Events Conditions
12:54 AM 44.1 °F - 30.9 °F 60% 30.00 in 10.0 mi Calm Calm - N/A   Clear
1:54 AM 39.9 °F - 35.1 °F 83% 30.00 in 10.0 mi Calm Calm - N/A   Clear
2:54 AM 39.0 °F - 33.1 °F 79% 29.99 in 10.0 mi Calm Calm - N/A   Clear
3:54 AM 37.9 °F - 34.0 °F 86% 30.00 in 10.0 mi Calm Calm - N/A   Clear
4:54 AM 37.9 °F - 33.1 °F 83% 30.02 in 10.0 mi Calm Calm - N/A   Clear
5:54 AM 41.0 °F - 32.0 °F 70% 30.04 in 10.0 mi Calm Calm - N/A   Clear
6:54 AM 42.1 °F - 35.1 °F 76% 30.05 in 10.0 mi Calm Calm - N/A   Clear
7:54 AM 46.9 °F - 34.0 °F 61% 30.06 in 10.0 mi Variable 3.5 mph - N/A   Clear
8:54 AM 46.9 °F - 28.9 °F 50% 30.09 in 10.0 mi WNW 6.9 mph 16.1 mph N/A   Partly Cloudy
9:54 AM 48.9 °F - 28.9 °F 46% 30.08 in 10.0 mi NNW 10.4 mph 16.1 mph N/A   Partly Cloudy
10:54 AM 51.1 °F - 30.0 °F 44% 30.09 in 10.0 mi WNW 12.7 mph 18.4 mph N/A   Mostly Cloudy
11:54 AM 50.0 °F - 28.0 °F 43% 30.09 in 10.0 mi West 9.2 mph 17.3 mph N/A   Overcast
12:54 PM 50.0 °F - 26.1 °F 39% 30.09 in 10.0 mi West 6.9 mph - N/A   Overcast
1:54 PM 51.1 °F - 28.0 °F 41% 30.09 in 10.0 mi WNW 8.1 mph 19.6 mph N/A   Mostly Cloudy
2:54 PM 51.1 °F - 26.1 °F 38% 30.08 in 10.0 mi WNW 10.4 mph 18.4 mph N/A   Mostly Cloudy
4:54 PM 53.1 °F - 25.0 °F 34% 30.06 in 10.0 mi West 8.1 mph - N/A   Partly Cloudy
5:54 PM 53.1 °F - 25.0 °F 34% 30.05 in 10.0 mi NNW 10.4 mph 17.3 mph N/A   Partly Cloudy
6:54 PM 52.0 °F - 21.9 °F 31% 30.05 in 10.0 mi West 8.1 mph - N/A   Clear
8:54 PM 46.9 °F - 25.0 °F 42% 30.09 in 10.0 mi North 3.5 mph - N/A   Clear
9:54 PM 44.1 °F 41.5 °F 28.9 °F 55% 30.12 in 10.0 mi NNE 4.6 mph - N/A   Clear
10:54 PM 43.0 °F - 30.9 °F 62% 30.14 in 10.0 mi Calm Calm - N/A   Clear
11:54 PM 39.9 °F - 33.1 °F 77% 30.16 in 10.0 mi Calm Calm - N/A   Clear